This is the latest recevied weather packets stored in our database for station/object KF0JHJ. If no packets are shown the sender has not sent any weather packets the latest 10 day(s).
| Time | Temp. | Humidity | Pressure | Rain* | Wind** | Luminosity | Snow |
|---|---|---|---|---|---|---|---|
| 1777645552 | 7.22° C | 54% | 1016.8 hPa | - | - | 144 W/m² | - |
| 1777645248 | 7.22° C | 56% | 1016.5 hPa | - | - | 154 W/m² | - |
| 1777644944 | 6.67° C | 58% | 1016.7 hPa | - | - | 142 W/m² | - |
| 1777644642 | 6.67° C | 56% | 1016.8 hPa | - | - | 133 W/m² | - |
| 1777644338 | 7.22° C | 55% | 1016.6 hPa | - | - | 126 W/m² | - |
| 1777644034 | 6.67° C | 57% | 1016.6 hPa | - | - | 346 W/m² | - |
| 1777643731 | 6.67° C | 57% | 1016.8 hPa | - | - | 127 W/m² | - |
| 1777643428 | 6.67° C | 57% | 1016.6 hPa | - | - | 132 W/m² | - |
| 1777643125 | 7.22° C | 63% | 1016.7 hPa | - | - | 108 W/m² | - |
| 1777642821 | 6.67° C | 61% | 1016.6 hPa | - | - | 103 W/m² | - |
| 1777642519 | 7.22° C | 61% | 1016.7 hPa | - | - | 100 W/m² | - |
| 1777642215 | 7.22° C | 58% | 1016.3 hPa | - | - | 166 W/m² | - |
| 1777641913 | 7.78° C | 60% | 1016.6 hPa | - | - | 204 W/m² | - |
| 1777641613 | 6.67° C | 64% | 1016.5 hPa | - | - | 171 W/m² | - |
| 1777641308 | 5.56° C | 67% | 1016.5 hPa | - | - | 83 W/m² | - |
| 1777641004 | 5° C | 68% | 1016.6 hPa | - | - | 43 W/m² | - |
| 1777640700 | 5° C | 68% | 1016.5 hPa | - | - | 39 W/m² | - |
| 1777640397 | 4.44° C | 71% | 1016 hPa | - | - | 35 W/m² | - |
| 1777640094 | 3.89° C | 73% | 1016.5 hPa | - | - | 34 W/m² | - |
| 1777639791 | 3.89° C | 74% | 1016.1 hPa | - | - | 28 W/m² | - |
| 1777639489 | 3.89° C | 74% | 1015.8 hPa | - | - | 27 W/m² | - |
| 1777639185 | 3.89° C | 74% | 1016 hPa | - | - | 28 W/m² | - |
| 1777638881 | 3.33° C | 75% | 1015.9 hPa | - | - | 26 W/m² | - |
| 1777638577 | 3.33° C | 76% | 1015.8 hPa | - | - | 24 W/m² | - |
| 1777638274 | 3.33° C | 77% | 1015.9 hPa | - | - | 24 W/m² | - |
* Rain since midnight (hover to see other rain measurements)
** Current wind speed in m/s (hover to see current wind gust speed)